Simultaneous Nadir Overpasses (SNOs) Predictions

Prediction of SNOs between NOAA-20 and LANDSAT-8 Satellite Orbit:

Table of predicted SNOs for the next 14.0 days since TLE Epoch: 1/26/2018
Index Date (NOAA-20) Time (NOAA-20) Lat,Lon (NOAA-20) SZA (NOAA-20 ) Date (LANDSAT-8) Time (LANDSAT-8) Lat,Lon (LANDSAT-8) SZA (LANDSAT-8 ) Distance(km) Time Diff (sec)
1 01/26/2018 15:06:08 70.10, -50.20 88.74 01/26/2018 15:06:34 70.12, -50.22 88.75 2.09 26
2 01/26/2018 15:56:50 -70.01, 117.26 91.37 01/26/2018 15:56:04 -70.00, 117.25 91.38 1.16 46
3 01/29/2018 06:32:22 -70.36,-102.15 91.67 01/29/2018 06:33:33 -70.29,-101.73 91.78 17.63 71
4 01/29/2018 07:23:03 70.09, 65.58 88.04 01/29/2018 07:23:02 70.08, 65.61 88.02 2.09 1
5 01/29/2018 08:13:44 -69.95,-126.88 92.13 01/29/2018 08:12:32 -69.96,-126.92 92.10 2.26 72
6 01/31/2018 22:49:13 -70.14, 13.96 92.64 01/31/2018 22:50:03 -70.14, 13.94 92.65 0.51 50
7 01/31/2018 23:39:57 70.03,-178.57 87.24 01/31/2018 23:39:30 70.04,-178.56 87.25 0.39 27
8 02/01/2018 00:30:22 -69.04, -9.81 93.82 02/01/2018 00:29:15 -69.10, -12.19 93.65 95.02 67
9 02/03/2018 14:15:40 71.02, -39.01 87.54 02/03/2018 14:16:47 70.92, -36.65 87.33 86.38 67
10 02/03/2018 15:06:06 -70.08, 129.81 93.47 02/03/2018 15:06:30 -70.10, 129.77 93.46 2.62 24
11 02/03/2018 15:56:50 69.98, -62.71 86.41 02/03/2018 15:55:57 69.99, -62.74 86.43 2.05 53
12 02/06/2018 06:32:19 70.18, 78.12 85.84 02/06/2018 06:33:28 70.16, 78.10 85.81 1.85 69
13 02/06/2018 07:23:01 -70.08,-114.41 94.29 02/06/2018 07:22:58 -70.06,-114.41 94.31 2.38 3
14 02/06/2018 08:13:40 69.71, 53.45 85.32 02/06/2018 08:12:28 69.78, 52.84 85.42 24.81 72
15 02/08/2018 22:49:13 70.12,-166.03 84.94 02/08/2018 22:49:56 70.11,-166.09 84.92 2.58 43
16 02/08/2018 23:39:55 -70.02, 1.45 95.19 02/08/2018 23:39:26 -70.01, 1.40 95.19 2.17 29




NCC Satellite Simultaneous Nadir Overpasses (SNOs) Prediction Service
